Location: Balaclava NSW 2575, Australia
(34.4510°S, 150.4953°E)
Time: 19:53:22
(UTC+10:00)

X-37B - Visible Passes

Search period start: 06 May 2021 00:00
Search period end: 16 May 2021 00:00
Orbit: 386 x 389 km, 45.0° (Epoch: 04 May)

Date Brightness Start Highest point End Pass type
(mag) Time Alt. Az. Time Alt. Az. Time Alt. Az.
06 May 1.2 06:03:48 10° NW 06:06:58 59° NE 06:10:09 10° ESE visible
07 May 2.6 05:06:41 15° NNW 05:08:42 27° NE 05:11:30 10° E visible
08 May 4.1 04:11:55 11° ENE 04:11:55 11° ENE 04:12:12 10° ENE visible
08 May 0.6 05:44:15 15° WNW 05:46:50 64° SSW 05:50:03 10° SE visible
09 May 1.7 04:49:14 44° E 04:49:14 44° E 04:51:40 10° ESE visible
10 May 1.4 05:26:20 32° SW 05:26:48 34° SSW 05:29:48 10° SE visible
11 May 3.6 04:30:58 14° SE 04:30:58 14° SE 04:31:34 10° SE visible
11 May 2.6 06:03:17 10° SW 06:05:26 17° SSW 06:07:38 10° SSE visible
12 May 2.6 05:07:48 19° S 05:07:48 19° S 05:09:29 10° SE visible
13 May 2.9 05:44:32 12° SSW 05:45:37 14° S 05:47:23 10° SSE visible
14 May 3.5 04:48:54 11° SSE 04:48:54 11° SSE 04:49:09 10° SSE visible
15 May 3.0 05:25:31 13° S 05:25:50 13° S 05:27:22 10° SSE visible
